When you browse on this site, cookies collect data to enhance your experience and personalize the content and advertising you see.
Visit our Privacy Policy to learn more. By continuing to use the site, you agree to this use of cookies and data.
  • In Portugal
  • List of Countries
  • For 7 days
  • Water Temperature
  • Satellite Maps
  • Weather Map
  • Weather Widgets
  • user-avatar
    Login

    Hourly Weather Ladyzhin

    Today, 25 March, Monday

    Time Temperature Precipitation Wind Pressure Humidity
    00:00 +5°C° 0 mm 2 mps 743 mmHg 69%
    01:00 +6°C° 0 mm 1 mps 743 mmHg 69%
    02:00 +5°C° 0 mm 1 mps 743 mmHg 70%
    03:00 +5°C° 0 mm 1 mps 743 mmHg 70%
    04:00 +4°C° 0 mm 0 mps 742 mmHg 71%
    05:00 +3°C° 0 mm 0 mps 742 mmHg 71%
    06:00 +4°C° 0 mm 0 mps 741 mmHg 68%
    07:00 +6°C° 0 mm 1 mps 741 mmHg 65%
    08:00 +7°C° 0 mm 1 mps 741 mmHg 62%
    09:00 +7°C° 0.1 mm 2 mps 740 mmHg 61%
    10:00 +8°C° 0.1 mm 2 mps 740 mmHg 60%
    11:00 +8°C° 0.1 mm 3 mps 740 mmHg 59%
    12:00 +8°C° 0.4 mm 3 mps 739 mmHg 64%
    13:00 +7°C° 0.4 mm 3 mps 739 mmHg 69%
    14:00 +7°C° 0.4 mm 3 mps 739 mmHg 75%
    15:00 +7°C° 0.1 mm 2 mps 738 mmHg 76%
    16:00 +7°C° 0.1 mm 2 mps 738 mmHg 78%
    17:00 +8°C° 0.1 mm 1 mps 738 mmHg 80%
    18:00 +7°C° 0 mm 1 mps 738 mmHg 81%
    19:00 +6°C° 0 mm 0 mps 738 mmHg 83%
    20:00 +6°C° 0 mm 0 mps 738 mmHg 85%
    21:00 +5°C° 0 mm 0 mps 738 mmHg 86%
    22:00 +6°C° 0 mm 1 mps 738 mmHg 87%
    23:00 +6°C° 0 mm 1 mps 738 mmHg 88%

    Tomorrow, 26 March, Tuesday

    Time Temperature Precipitation Wind Pressure Humidity
    00:00 +6°C° 0 mm 1 mps 738 mmHg 88%
    01:00 +5°C° 0 mm 1 mps 738 mmHg 88%
    02:00 +4°C° 0 mm 2 mps 739 mmHg 88%
    03:00 +4°C° 0 mm 2 mps 739 mmHg 87%
    04:00 +4°C° 0 mm 2 mps 739 mmHg 86%
    05:00 +3°C° 0 mm 2 mps 739 mmHg 85%
    06:00 +3°C° 0.3 mm 3 mps 739 mmHg 84%
    07:00 +3°C° 0.3 mm 4 mps 740 mmHg 84%
    08:00 +3°C° 0.3 mm 5 mps 740 mmHg 83%
    09:00 +5°C° 0.1 mm 5 mps 741 mmHg 73%
    10:00 +6°C° 0.1 mm 5 mps 741 mmHg 62%
    11:00 +7°C° 0.1 mm 6 mps 742 mmHg 51%
    12:00 +8°C° 0 mm 6 mps 742 mmHg 48%
    13:00 +8°C° 0 mm 6 mps 742 mmHg 45%
    14:00 +8°C° 0 mm 6 mps 742 mmHg 42%
    15:00 +8°C° 0 mm 6 mps 742 mmHg 43%
    16:00 +8°C° 0 mm 6 mps 742 mmHg 43%
    17:00 +7°C° 0 mm 6 mps 742 mmHg 43%
    18:00 +6°C° 0 mm 5 mps 743 mmHg 49%
    19:00 +5°C° 0 mm 4 mps 743 mmHg 55%
    20:00 +4°C° 0 mm 3 mps 743 mmHg 61%
    21:00 +3°C° 0 mm 4 mps 743 mmHg 64%
    22:00 +3°C° 0 mm 4 mps 743 mmHg 66%
    23:00 +1°C° 0 mm 4 mps 743 mmHg 69%

    Day after tomorrow, 27 March, Wednesday

    Time Temperature Precipitation Wind Pressure Humidity
    00:00 +1°C° 0 mm 5 mps 743 mmHg 69%
    01:00 +1°C° 0 mm 6 mps 742 mmHg 69%
    02:00 +1°C° 0 mm 6 mps 742 mmHg 68%
    03:00 0°C° 0.1 mm 7 mps 742 mmHg 68%
    04:00 0°C° 0.1 mm 7 mps 742 mmHg 69%
    05:00 -1°C° 0.1 mm 8 mps 743 mmHg 69%
    06:00 -1°C° 0 mm 8 mps 744 mmHg 67%
    07:00 -2°C° 0 mm 8 mps 744 mmHg 64%
    08:00 -4°C° 0 mm 9 mps 745 mmHg 62%
    09:00 -2°C° 0 mm 8 mps 746 mmHg 60%
    10:00 -1°C° 0 mm 8 mps 747 mmHg 59%
    11:00 0°C° 0 mm 7 mps 748 mmHg 57%
    12:00 +2°C° 0 mm 7 mps 748 mmHg 52%
    13:00 +3°C° 0 mm 6 mps 749 mmHg 48%
    14:00 +4°C° 0 mm 6 mps 749 mmHg 43%
    15:00 +4°C° 0.1 mm 6 mps 749 mmHg 45%
    16:00 +3°C° 0.1 mm 6 mps 749 mmHg 46%
    17:00 +3°C° 0.1 mm 6 mps 750 mmHg 47%
    18:00 +2°C° 0 mm 5 mps 750 mmHg 50%
    19:00 +1°C° 0 mm 4 mps 751 mmHg 53%
    20:00 +2°C° 0 mm 3 mps 751 mmHg 56%
    21:00 +1°C° 0 mm 3 mps 752 mmHg 58%
    22:00 0°C° 0 mm 3 mps 752 mmHg 60%
    23:00 +1°C° 0 mm 2 mps 753 mmHg 62%

    28 March, Thursday

    Time Temperature Precipitation Wind Pressure Humidity
    00:00 -1°C° 0 mm 2 mps 753 mmHg 62%
    01:00 -1°C° 0 mm 2 mps 753 mmHg 62%
    02:00 -1°C° 0 mm 2 mps 753 mmHg 61%
    03:00 -1°C° 0 mm 2 mps 754 mmHg 60%
    04:00 -1°C° 0 mm 2 mps 754 mmHg 59%
    05:00 -2°C° 0 mm 2 mps 754 mmHg 58%
    06:00 -1°C° 0 mm 2 mps 754 mmHg 54%
    07:00 +2°C° 0 mm 2 mps 755 mmHg 49%
    08:00 +3°C° 0 mm 2 mps 755 mmHg 44%
    09:00 +4°C° 0 mm 2 mps 755 mmHg 41%
    10:00 +4°C° 0 mm 3 mps 755 mmHg 38%
    11:00 +5°C° 0 mm 3 mps 755 mmHg 35%
    12:00 +5°C° 0 mm 3 mps 755 mmHg 34%
    13:00 +7°C° 0 mm 3 mps 755 mmHg 33%
    14:00 +7°C° 0 mm 3 mps 755 mmHg 32%
    15:00 +7°C° 0 mm 3 mps 755 mmHg 33%
    16:00 +7°C° 0 mm 3 mps 755 mmHg 34%
    17:00 +7°C° 0 mm 3 mps 755 mmHg 35%
    18:00 +5°C° 0 mm 3 mps 755 mmHg 40%
    19:00 +5°C° 0 mm 2 mps 755 mmHg 45%
    20:00 +5°C° 0 mm 1 mps 755 mmHg 50%
    21:00 +4°C° 0 mm 1 mps 755 mmHg 52%
    22:00 +4°C° 0 mm 1 mps 756 mmHg 54%
    23:00 +3°C° 0 mm 1 mps 756 mmHg 56%

    29 March, Friday

    Time Temperature Precipitation Wind Pressure Humidity
    00:00 +3°C° 0 mm 1 mps 756 mmHg 57%
    01:00 +2°C° 0 mm 0 mps 756 mmHg 58%
    02:00 +1°C° 0 mm 0 mps 756 mmHg 59%
    03:00 +1°C° 0 mm 0 mps 756 mmHg 60%
    04:00 +1°C° 0 mm 0 mps 756 mmHg 60%
    05:00 +2°C° 0 mm 1 mps 756 mmHg 60%
    06:00 +3°C° 0 mm 1 mps 756 mmHg 56%
    07:00 +4°C° 0 mm 1 mps 756 mmHg 53%
    08:00 +5°C° 0 mm 1 mps 756 mmHg 49%
    09:00 +5°C° 0 mm 2 mps 756 mmHg 46%
    10:00 +7°C° 0 mm 2 mps 756 mmHg 43%
    11:00 +8°C° 0 mm 2 mps 756 mmHg 40%
    12:00 +9°C° 0 mm 3 mps 755 mmHg 39%
    13:00 +9°C° 0 mm 3 mps 755 mmHg 38%
    14:00 +10°C° 0 mm 3 mps 754 mmHg 37%
    15:00 +10°C° 0 mm 3 mps 754 mmHg 38%
    16:00 +10°C° 0 mm 3 mps 754 mmHg 39%
    17:00 +10°C° 0 mm 3 mps 753 mmHg 40%
    18:00 +9°C° 0 mm 2 mps 753 mmHg 45%
    19:00 +8°C° 0 mm 2 mps 753 mmHg 49%
    20:00 +8°C° 0 mm 1 mps 753 mmHg 54%
    21:00 +7°C° 0 mm 1 mps 753 mmHg 59%
    22:00 +6°C° 0 mm 2 mps 753 mmHg 63%
    23:00 +6°C° 0 mm 2 mps 753 mmHg 67%

    30 March, Saturday

    Time Temperature Precipitation Wind Pressure Humidity
    00:00 +5°C° 0 mm 2 mps 752 mmHg 71%
    01:00 +5°C° 0 mm 2 mps 752 mmHg 76%
    02:00 +4°C° 0 mm 2 mps 752 mmHg 80%
    03:00 +4°C° 0 mm 2 mps 752 mmHg 82%
    04:00 +4°C° 0 mm 2 mps 752 mmHg 83%
    05:00 +3°C° 0 mm 2 mps 752 mmHg 85%
    06:00 +4°C° 0 mm 2 mps 752 mmHg 80%
    07:00 +5°C° 0 mm 2 mps 752 mmHg 76%
    08:00 +6°C° 0 mm 2 mps 751 mmHg 72%
    09:00 +8°C° 0 mm 2 mps 751 mmHg 65%
    10:00 +9°C° 0 mm 2 mps 751 mmHg 58%
    11:00 +11°C° 0 mm 3 mps 751 mmHg 52%
    12:00 +13°C° 0 mm 2 mps 750 mmHg 48%
    13:00 +14°C° 0 mm 2 mps 750 mmHg 45%
    14:00 +14°C° 0 mm 2 mps 749 mmHg 41%
    15:00 +14°C° 0 mm 2 mps 749 mmHg 41%
    16:00 +14°C° 0 mm 2 mps 748 mmHg 41%
    17:00 +15°C° 0 mm 2 mps 748 mmHg 41%
    18:00 +13°C° 0 mm 1 mps 748 mmHg 46%
    19:00 +12°C° 0 mm 1 mps 748 mmHg 50%
    20:00 +10°C° 0 mm 0 mps 747 mmHg 55%
    21:00 +10°C° 0 mm 1 mps 747 mmHg 56%
    22:00 +10°C° 0 mm 1 mps 747 mmHg 58%
    23:00 +8°C° 0 mm 2 mps 747 mmHg 60%
    Show more